DUCHIFAT-1 (40021 NORAD) Tracking and Keplerian Element Data

This shows tracking and keplerian element data for the satellite.

Feedback or suggestion? Click here.




ElementValue
Catalog40021
NameDUCHIFAT-1
Epoch Orbit57911
Epoch Day34.53132117
Epoch Year2025
RAAN38.6389
Inclination98.1018
Eccentricity0.0011635
Argument of Perigee44.0787
Mean Anonmoly316.1372
Mean Motion15.20480359
Decay Rate0.00028992
L11 40021U 14033M 25034.53132117 .00028992 00000+0 13244-2 0 9990
L22 40021 98.1018 38.6389 0011635 44.0787 316.1372 15.20480359579112



Live tracking and technical data element details for DUCHIFAT-1 (NORAD 40021). DUCHIFAT-1 can be tracked NOW for your location showing map with azimuth and elevation plus other details from your city location.







IsCatalogInMostPopularTable: catalog: 40021, numindb: 526
Update: records affected: 1



GetName: 40021 DUCHIFAT-1

Hit Count: updated at: Sat, 06 Dec 2025 12:00:47 GMT